STARLINK-1302, 45375

Orbit data source: Space-Track

STARLINK-1302, 45375 is a payload satellite owned by SpaceX/Seattle (US) in LEO that was launched on Wed, 18 Mar 2020 UTC via an FALCON 9 launch vehicle from the Air Force Eastern Test Range (AFETR). Payload-class satellites include a variety of spacecraft equipped with specific instruments for various scientific and technological missions. These include communications satellites like Starlink; space stations such as the ISS; scientific satellites like the Hubble; Earth observation satellites from companies like Planet Labs, Umbra, and HawkEye 360; GPS; miniature CubeSats for education and research; and military/defense satellites.

Loading next visibility...
Identifier
45375, 2020-019R
Orbit
LEO
Country
Flag of USUS
Related business
Manufacturer
SpaceX/Seattle
Mission
Partially operational Commercial Communications
Bus & Motor
STARLINK, Unknown motor
Mass
260 kg wet, ~248 kg dry
Launch date (UTC)
2020-03-18 (7 years ago)
Launch vehicle
FALCON 9
Launch site
Air Force Eastern Test Range (AFETR)
Object type
Payload
Rocket body
Debris
Shape & HBR
Box + 1 Pan, 10.1 m
Radar Cross Section
13.562 m², Large (>1 m²)

Expand to show TLE details & history
Last TLE update: 20 hours ago

TLE from 20 hours ago
0 STARLINK-1302
1 45375U 20019R   26264.55762618  .00069122  00000-0  37373-3 0  9992
2 45375  53.0389 266.6571 0006956  52.4760 307.6891 15.79460574360660
Epoch: 2026-09-21T13:22Z
TLE epoch observation values (Epoch: 2026-09-21T13:22:58.901Z)
Latitude
-0.00011°
Longitude
65.47586°
Altitude
330.022 km
Speed
7.713 km/s
True Right ascension
17h 46m 37s
True Declination
0° 00' 00"
Sunlit
Object was in daylight at epoch
Visualization orbit readout
Latitude
Unknown
Longitude
Unknown
Altitude
Unknown
Speed
Unknown
Apparent Right ascension
Unknown
Apparent Declination
Unknown
Sunlit
N/A
Visualization observer readout
Local Sidereal Time
02:00:07
Azimuth
Unknown
Elevation
Unknown
Doppler factor
Unknown
Orbital elements
Apogee altitude
336.917 km
Perigee altitude
327.582 km
Semi-major axis
6,710.387 km
Eccentricity
0.0007
Inclination
53.0389°
RAAN
266.6571°
Arg. of periapsis
52.476°
True anomaly
307.62599°
Mean anomaly
307.6891°
Eccentric anomaly
307.65755°
Mean motion
3.94841 °/min
Orbital period
91.18 mins
BSTAR
0.00037373
Loading maneuver chart data...
Computing Atmospheric mass density...
Loading historical data...
Loading historical data...
Loading historical data...
Loading historical data...
Loading historical data...
Loading historical data...
Loading historical data...

Documentation

Showing up to 5 results
|